Weather in Utevka

Russia / Samara Oblast     52°54′20″N   50°57′03″E
temp.,
°C
wind,
m/s
gust,
m/s
humid.,
%
clouds,
%
prec.,
mm/h
press.,
hPa
HPBL,
m
8 march, mon
mon801:00−7ssw81693100 0.3 1007668
04:00−5ssw101792100 0.9 1003970
07:00−4sw101793100 0.9 1001960
10:00−2sw91590100 1.4 10021194
13:00−1wsw8137568 0.2 10041620
16:00−1sw5108251 0.2 10051104
19:00−1ssw71390100 1.0 1004897
22:00−2sw71393100 1.4 1004846
9 march, tue
tue901:00−4wsw51287100 0.7 1004466
04:00−10wsw489054 0.7 1007143
07:00−14w23940 0.0 100923
10:00−11wsw129232 0.0 1011124
13:00−7sw0088100 0.0 1011273
16:00−6ene1188100 0.0 1010281
19:00−10ne1294100 0.0 100921
22:00−11nnw3395100 0.0 100974
10 march, wed
wed1001:00−13nnw4793100 0.0 1008148
04:00−14nw4895100 0.0 1009193
07:00−14nw5994100 0.1 1010330
10:00−13nw6109297 0.2 1012478
13:00−12nw6989100 0.1 1014618
16:00−13nw6988100 0.1 1015656
19:00−18nw51193100 0.1 1017473
22:00−20nw51094100 0.1 1019465
11 march, thu
thu1101:00−23nw489591 0.1 1020218
04:00−26nw479573 0.1 1022133
07:00−28nw36960 0.0 102398
10:00−23nw37930 0.0 1025259
13:00−18wnw359038 0.0 1026388
16:00−15w368857 0.0 1026515
19:00−19w369693 0.0 1027104
22:00−19w339689 0.0 102853
12 march, fri
fri1201:00−20wnw239882 0.0 102924
04:00−20w239970 0.0 103022
07:00−21w229943 0.0 103120
10:00−16wnw239362 0.0 1032192
13:00−12wnw228697 0.0 1032308
16:00−10w238875 0.0 1032323
19:00−16wsw229636 0.0 103220
22:00−17wsw229738 0.0 103220